Terug naar catalogus

DELTA 2 R/B(2)

ActiefGTO
NORAD 22098·ROCKET BODY·🇺🇸 United States

Gelanceerd Aug 31, 1992 vanaf Cape Canaveral Space Force Station

Loading…

TLE

VerouderendSource: Space-Track

Epoch: Sep 14, 2026, 17:22 UTC

1 22098U 92057C   26257.72388071 -.00000070  00000-0  00000-0 0  9990
2 22098  20.1465 275.2337 6762372 176.9218 229.0410  2.17559293270513

Volg DELTA 2 R/B(2) in realtime met AllMySat

Download on the App Store